Regional Weather Roundup
Issued by NWS

Home | Current Version | Previous Version | Graphics & Text | Print | Product List | Glossary Off
Versions: 1 2 3 4 5 6 7 8 9 10 11 12 13 14 15 16 17 18 19 20 21 22 23 24 25 26 27 28 29 30 31 32 33 34 35 36 37 38 39 40 41 42 43 44 45 46 47 48 49 50

000
ASUS43 KMPX 292110
RWRMN
WEATHER ROUNDUP FOR MINNESOTA
NATIONAL WEATHER SERVICE TWIN CITIES/CHANHASSEN MN
300 PM CST THU JAN 29 2015


NOTE: "FAIR" INDICATES FEW OR NO CLOUDS BELOW 12,000 FEET WITH NO
SIGNIFICANT WEATHER AND/OR OBSTRUCTIONS TO VISIBILITY. N/A MEANS
CURRENT SKY AND/OR WEATHER CONDITIONS ARE NOT AVAILABLE.

MNZ060>063-068>070-292200-
   Twin Cities Metro

CITY           SKY/WX    TMP DP  RH WIND       PRES   REMARKS
TWIN CITIES    CLOUDY    27  15  61 NW21G29   30.30R WCI  13
ST PAUL        CLOUDY    28  16  60 NW18G30   30.30R WCI  15
CRYSTAL        CLOUDY    29  15  56 NW14G26   30.30R WCI  18
BLAINE         CLOUDY    28  18  64 NW17G28   30.29R WCI  16
LAKEVILLE      CLOUDY    27  18  69 NW24G32   30.28R WCI  12
EDEN PRAIRIE   CLOUDY    27  15  61 NW16      30.30R WCI  15
SOUTH ST PAUL  CLOUDY    29  17  59 NW21G28   30.29R WCI  16
LAKE ELMO      CLOUDY    30  19  64 NW14G26   30.28R WCI  20
$$
MNZ001>005-007-008-013>017-022>024-027-028-292200-
   Northwest Minnesota

CITY           SKY/WX    TMP DP  RH WIND       PRES   REMARKS
BEMIDJI        SUNNY     13   4  68 NW14      30.37S WCI  -2
HALLOCK        CLOUDY     7   1  78 NW15      30.54R WCI -11
ROSEAU         PTSUNNY   10   3  72 NW14      30.45R WCI  -5
WARROAD        MOSUNNY    9   0  66 NW12      30.44R WCI  -6
THIEF RVR FALL PTSUNNY    9   3  78 NW16      30.47R WCI  -9
CROOKSTON      MOSUNNY   10   3  72 N20G28    30.53R WCI  -8
FOSSTON        CLOUDY    10   7  85 NW13      30.45R WCI  -5
DETROIT LAKES  FLURRIES  14   9  79 NW17G25   30.43R WCI  -3
MOORHEAD       MIX PCPN  18  10  73 N16G23    30.51R WCI   3
PARK RAPIDS    PTSUNNY   17   7  64 NW20G26   30.37R WCI   1
MAHNOMEN       FAIR      12   6  74 NW17      30.44R WCI  -5
$$
MNZ006-009>011-018-025>026-292200-
   North Central Minnesota

CITY           SKY/WX    TMP DP  RH WIND       PRES   REMARKS
BAUDETTE       PTSUNNY    8   0  69 NW16      30.39R WCI -10
FLAG ISLAND    PTSUNNY    7   0  72 NW18      30.41S WCI -12
INTL FALLS     CLOUDY    11   2  67 NW16      30.34R WCI  -6
WASKISH        PTSUNNY   14   7  73 NW10G16   30.39R WCI   1
BIG FORK       SUNNY     14   3  62 NW6       30.34R WCI   5
LONGVILLE      PTSUNNY   14   7  73 NW9G17    30.35R WCI   2
GRAND RAPIDS   CLOUDY    12   7  79 NW16G24   30.30R WCI  -4
CRANE LAKE     CLOUDY    12   7  79 NW9       30.32R WCI   0
ORR            CLOUDY    10   1  67 NW10G18   30.28R WCI  -3
COOK           CLOUDY    12   3  67 NW12G20   30.29R WCI  -2
WALKER         MOCLDY    13   5  70 NW9G16    30.36R WCI   1
$$
MNZ012-019>021-037-292200-
   Northeast Minnesota

CITY           SKY/WX    TMP DP  RH WIND       PRES   REMARKS
DULUTH         FLURRIES  18   7  62 NW10      30.22R WCI   6
ELY            CLOUDY    14   7  73 NW13G22   30.22R WCI   0
HIBBING        CLOUDY    13   3  64 NW22      30.27R WCI  -6
EVELETH        FLURRIES  14   7  73 NW15      30.27R WCI  -1
DULUTH HARBOR  PTSUNNY   23  12  63 NW14      30.29R WCI  11
TWO HARBORS    LGT SNOW  21  12  68 NW8G18    30.21R WCI  12
SILVER BAY     FLURRIES  21   9  58 NW9G18    30.19R WCI  11
GRAND MARAIS     N/A     21   7  54 NW13G28   30.21R WCI   9
G MARAIS ARPRT CLOUDY    12   3  67 NW12G21   30.10R WCI  -2
$$
MNZ029>031-032-039>041-046>048-054>057-064-292200-
   West Central Minnesota

CITY           SKY/WX    TMP DP  RH WIND       PRES   REMARKS
FERGUS FALLS   FLURRIES  16   7  67 N21G29    30.49R WCI  -2
WHEATON        FLURRIES  18  10  73 NW16      30.50R WCI   3
MORRIS         FLURRIES  19  10  68 NW26G32   30.43S WCI   1
ALEXANDRIA     PTSUNNY   18   9  68 NW18      30.39R WCI   2
ELBOW LAKE     FLURRIES  16   9  75 NW22      30.43S WCI  -2
WADENA         SUNNY     16   9  73 NW16G22   30.38R WCI   0
GLENWOOD       SUNNY     19  12  73 NW21G28   30.38S WCI   3
APPLETON       CLOUDY    21  14  73 N23G29    30.45S WCI   5
BENSON         FLURRIES  19  10  68 N23G30    30.42S WCI   2
ORTONVILLE     CLOUDY    21  14  73 N18G25    30.46R WCI   6
MADISON        CLOUDY    27  19  74 N22       30.45R WCI  12
WILLMAR        PTSUNNY   25  14  63 NW21G29   30.40R WCI  10
$$
MNZ033>034-036-042>043-049>051-058-059-292200-
   Central Minnesota

CITY           SKY/WX    TMP DP  RH WIND       PRES   REMARKS
ST CLOUD       MOSUNNY   25  14  63 NW22      30.33R WCI  10
SAUK CENTRE    FAIR      20  10  66 NW17G28   30.36S WCI   5
PAYNESVILLE    MOSUNNY   20  13  72 W18G25    30.37R WCI   5
AITKIN         MIX PCPN  19   9  63 NW14G21   30.32R WCI   6
PINE RIVER     MOSUNNY   18   9  68 N16G22    30.37R WCI   3
BRAINERD       CLOUDY    19   8  62 N18G25    30.34R WCI   4
STAPLES        MOSUNNY   18   9  68 NW14G21   30.36R WCI   4
LONG PRAIRIE   FAIR      19  12  73 W16G24    30.36R WCI   5
LITTLE FALLS   MOSUNNY   25  10  54 NW13G21   30.34R WCI  13
LITCHFIELD     MOSUNNY   25  16  68 NW18G28   30.36R WCI  11
BUFFALO        PTSUNNY   26  16  64 W15G24    30.33S WCI  14
MAPLE LAKE     PTSUNNY   27  17  66 NW17G24   30.34R WCI  14
$$
MNZ037-044-045-052-053-292200-
   East Central Minnesota

CITY           SKY/WX    TMP DP  RH WIND       PRES   REMARKS
PRINCETON      MOSUNNY   28  16  59 W18G24    30.31R WCI  16
MORA           MOSUNNY   25  12  58 NW20G29   30.31R WCI  11
CAMBRIDGE      PTSUNNY   28  16  59 NW16G23   30.28R WCI  17
RUSH CITY      CLOUDY    26  15  62 NW15G23   30.29R WCI  14
MOOSE LAKE     CLOUDY    21  12  68 NW15G21   30.27R WCI   8
HINCKLEY       CLOUDY    27  14  59 NW15G22   30.28R WCI  15
CLOQUET        CLOUDY    18   9  68 NW15G22   30.25R WCI   3
MCGREGOR       CLOUDY    19  12  73 NW18      30.31R WCI   4
$$
MNZ071>073-080-081-089-090-097-098-292200-
   Southwest Minnesota

CITY           SKY/WX    TMP DP  RH WIND       PRES   REMARKS
MONTEVIDEO     CLOUDY    21  16  79 N23G31    30.44R WCI   5
GRANITE FALLS  CLOUDY    24  16  73 NW22G32   30.45R WCI   9
CANBY          CLOUDY    25  20  80 NW17G25   30.45R WCI  12
MARSHALL       CLOUDY    25  16  68 N28       30.43R WCI   8
REDWOOD FALLS  CLOUDY    24  14  65 NW22G37   30.40R WCI   9
OLIVIA         CLOUDY    23  16  74 NW26G32   30.38R WCI   6
PIPESTONE      CLOUDY    27  21  80 N17G25    30.39R WCI  14
WINDOM         CLOUDY    27  19  74 NW25G35   30.38R WCI  11
WORTHINGTON    CLOUDY    27  19  74 NW21      30.39R WCI  13
JACKSON        CLOUDY    28  21  74 NW23G37   30.36R WCI  14
TRACY          CLOUDY    27  22  81 NW20G28   30.41R WCI  13
SLAYTON        CLOUDY    26  21  80 NW16G26   30.39R WCI  14
$$
MNZ065>067-074>077-082>085-091>093-292200-
   South Central Minnesota

CITY           SKY/WX    TMP DP  RH WIND       PRES   REMARKS
MANKATO        CLOUDY   N/A N/A N/A NW24      30.33R
NEW ULM        CLOUDY    25  16  68 NW30G38   30.37R WCI   8
ST JAMES       CLOUDY    27  19  74 NW28G35   30.38R WCI  11
FAIRMONT       CLOUDY    27  18  69 NW24G31   30.34R WCI  12
GLENCOE        CLOUDY    26  19  74 NW16G26   30.34R WCI  14
FARIBAULT      CLOUDY    27  19  74 NW18G31   30.30R WCI  13
OWATONNA       CLOUDY    28  19  69 NW26G32   30.28R WCI  13
WASECA         CLOUDY    28  21  74 NW26G32   30.32R WCI  13
ALBERT LEA     CLOUDY    28  21  74 NW18G32   30.27R WCI  16
$$
MNZ078>079-086>088-094>096-292200-
   Southeast Minnesota

CITY           SKY/WX    TMP DP  RH WIND       PRES   REMARKS
ROCHESTER      CLOUDY    29  22  75 NW22G31   30.21R WCI  15
RED WING       CLOUDY    30  18  59 NW18G24   30.25R WCI  18
STANTON        CLOUDY    30  19  64 N23G29    30.26R WCI  17
DODGE CENTER   CLOUDY    28  23  80 NW23G30   30.23R WCI  14
WINONA         CLOUDY    34  25  69 NW18G30   30.20R WCI  23
AUSTIN         CLOUDY    30  21  69 NW21G32   30.24R WCI  17
PRESTON        CLOUDY    29  23  78 NW18G25   30.20R WCI  17
$$
ABBREVIATIONS USED IN REMARKS
   TC - TEMPERATURES IN CELSIUS
  WCI - WIND CHILL INDEX
   HX - HEAT INDEX
  VSB - VISIBILITY
$$


USA.gov is the U.S. government's official web portal to all federal, state and local government web resources and services.